| time (UTC) | temp F | wind direction | speed knots | gust knots | rain 1hr in | rain 24hr in | rain mn in | humidity % | barometer mb |
| 20260906213054 | 71 | 63 | 0.9 | 2.6 | 0.00 | 0.00 | 0.00 | 63 | 1018.4 |
| 20260906213004 | 71 | 348 | 0.9 | 2.6 | 0.00 | 0.00 | 0.00 | 61 | 1016.9 |
| 20260906212504 | 73 | 36 | 0.9 | 2.6 | 0.00 | 0.00 | 0.00 | 61 | 1017.0 |
| 20260906212004 | 74 | 354 | 0.9 | 2.6 | 0.00 | 0.00 | 0.00 | 58 | 1016.9 |
| 20260906211602 | 71 | 63 | 0.9 | 3.5 | 0.00 | 0.00 | 0.00 | 61 | 1018.5 |
| 20260906211504 | 72 | 349 | 1.7 | 2.6 | 0.00 | 0.00 | 0.00 | 60 | 1016.9 |
| 20260906211004 | 76 | 328 | 0.9 | 2.6 | 0.00 | 0.00 | 0.00 | 55 | 1016.9 |
| 20260906210100 | 75 | 28 | 0.9 | 4.3 | 0.00 | 0.00 | 0.00 | 56 | 1018.5 |
| 20260906210004 | 75 | 47 | 0.9 | 2.6 | 0.00 | 0.00 | 0.00 | 57 | 1016.9 |
| 20260906205504 | 70 | 353 | 1.7 | 2.6 | 0.00 | 0.00 | 0.00 | 60 | 1017.0 |
| 20260906205004 | 73 | 343 | 1.7 | 4.3 | 0.00 | 0.00 | 0.00 | 57 | 1016.9 |
| 20260906204612 | 76 | 324 | 0.9 | 3.5 | 0.00 | 0.00 | 0.00 | 56 | 1018.5 |
| 20260906204504 | 77 | 17 | 1.7 | 2.6 | 0.00 | 0.00 | 0.00 | 55 | 1016.9 |
| 20260906204004 | 78 | 74 | 0.9 | 2.6 | 0.00 | 0.00 | 0.00 | 52 | 1016.8 |
| 20260906203504 | 76 | 78 | 0.9 | 2.6 | 0.00 | 0.00 | 0.00 | 56 | 1016.7 |
| 20260906203101 | 77 | 1 | 0.9 | 4.3 | 0.00 | 0.00 | 0.00 | 55 | 1018.3 |
| 20260906203004 | 78 | 61 | 0.9 | 2.6 | 0.00 | 0.00 | 0.00 | 56 | 1016.7 |
| 20260906202504 | 75 | 55 | 1.7 | 4.3 | 0.00 | 0.00 | 0.00 | 58 | 1016.8 |
| 20260906202004 | 78 | 22 | 0.9 | 2.6 | 0.00 | 0.00 | 0.00 | 55 | 1016.7 |
| 20260906201610 | 75 | 53 | 0.9 | 3.5 | 0.00 | 0.00 | 0.00 | 58 | 1018.3 |
| 20260906201504 | 76 | 1 | 0.9 | 2.6 | 0.00 | 0.00 | 0.00 | 58 | 1016.7 |
| 20260906201003 | 75 | 36 | 1.7 | 2.6 | 0.00 | 0.00 | 0.00 | 59 | 1016.7 |
| 20260906200503 | 75 | 16 | 1.7 | 2.6 | 0.00 | 0.00 | 0.00 | 61 | 1016.7 |
| 20260906200054 | 73 | 0 | 1.7 | 4.3 | 0.00 | 0.00 | 0.00 | 62 | 1018.2 |
| 20260906200003 | 74 | 0 | 2.6 | 4.3 | 0.00 | 0.00 | 0.00 | 60 | 1016.6 |
| 20260906195504 | 75 | 318 | 1.7 | 4.3 | 0.00 | 0.00 | 0.00 | 60 | 1016.8 |
| 20260906195004 | 77 | 22 | 1.7 | 2.6 | 0.00 | 0.00 | 0.00 | 57 | 1016.8 |
| 20260906194604 | 75 | 56 | 0.9 | 5.2 | 0.00 | 0.00 | 0.00 | 60 | 1018.4 |
| 20260906194504 | 74 | 49 | 1.7 | 2.6 | 0.00 | 0.00 | 0.00 | 61 | 1016.8 |
| 20260906194004 | 74 | 335 | 1.7 | 5.2 | 0.00 | 0.00 | 0.00 | 62 | 1016.8 |
| 20260906193101 | 73 | 28 | 0.9 | 4.3 | 0.00 | 0.00 | 0.00 | 63 | 1018.4 |
| 20260906193003 | 73 | 38 | 1.7 | 4.3 | 0.00 | 0.00 | 0.00 | 64 | 1016.8 |
| 20260906192003 | 75 | 24 | 0.9 | 2.6 | 0.00 | 0.00 | 0.00 | 60 | 1016.7 |
| 20260906191600 | 76 | 0 | 0.9 | 3.5 | 0.00 | 0.00 | 0.00 | 59 | 1018.2 |
| 20260906190504 | 73 | 19 | 0.9 | 2.6 | 0.00 | 0.00 | 0.00 | 64 | 1016.7 |
| 20260906190113 | 73 | 15 | 0.9 | 4.3 | 0.00 | 0.00 | 0.00 | 62 | 1018.2 |
| 20260906190004 | 73 | 10 | 1.7 | 2.6 | 0.00 | 0.00 | 0.00 | 64 | 1016.6 |
| 20260906185004 | 77 | 53 | 1.7 | 4.3 | 0.00 | 0.00 | 0.00 | 56 | 1016.7 |
| 20260906184601 | 76 | 76 | 0.9 | 3.5 | 0.00 | 0.00 | 0.00 | 57 | 1018.3 |
| 20260906184003 | 73 | 19 | 0.9 | 2.6 | 0.00 | 0.00 | 0.00 | 62 | 1016.7 |
| 20260906183503 | 73 | 36 | 0.9 | 2.6 | 0.00 | 0.00 | 0.00 | 63 | 1016.8 |
| 20260906183108 | 77 | 342 | 0.9 | 2.6 | 0.00 | 0.00 | 0.00 | 55 | 1018.2 |
| 20260906183004 | 78 | 50 | 1.7 | 2.6 | 0.00 | 0.00 | 0.00 | 55 | 1016.8 |
| 20260906182503 | 78 | 99 | 1.7 | 2.6 | 0.00 | 0.00 | 0.00 | 56 | 1016.8 |
| 20260906182003 | 74 | 42 | 1.7 | 4.3 | 0.00 | 0.00 | 0.00 | 61 | 1016.8 |
| 20260906181604 | 73 | 331 | 0.0 | 3.5 | 0.00 | 0.00 | 0.00 | 64 | 1018.4 |
| 20260906181004 | 75 | 51 | 1.7 | 2.6 | 0.00 | 0.00 | 0.00 | 59 | 1016.8 |
| 20260906180504 | 78 | 9 | 0.9 | 2.6 | 0.00 | 0.00 | 0.00 | 57 | 1016.7 |
| 20260906180119 | 73 | 46 | 0.9 | 3.5 | 0.00 | 0.00 | 0.00 | 63 | 1018.4 |
| 20260906180004 | 73 | 57 | 0.9 | 2.6 | 0.00 | 0.00 | 0.00 | 64 | 1016.8 |
| 20260906175503 | 74 | 38 | 0.9 | 2.6 | 0.00 | 0.00 | 0.00 | 62 | 1016.7 |
| 20260906174559 | 77 | 20 | 0.9 | 3.5 | 0.00 | 0.00 | 0.00 | 54 | 1018.4 |
| 20260906174503 | 77 | 52 | 1.7 | 2.6 | 0.00 | 0.00 | 0.00 | 56 | 1016.7 |
| 20260906174004 | 78 | 24 | 1.7 | 2.6 | 0.00 | 0.00 | 0.00 | 53 | 1016.7 |
| 20260906173504 | 78 | 42 | 0.9 | 2.6 | 0.00 | 0.00 | 0.00 | 53 | 1016.8 |
| 20260906173119 | 76 | 49 | 0.9 | 4.3 | 0.00 | 0.00 | 0.00 | 57 | 1018.4 |
| 20260906172504 | 76 | 80 | 1.7 | 2.6 | 0.00 | 0.00 | 0.00 | 60 | 1016.8 |
| 20260906172004 | 75 | 318 | 0.9 | 2.6 | 0.00 | 0.00 | 0.00 | 58 | 1016.9 |
| 20260906171559 | 75 | 67 | 0.9 | 3.5 | 0.00 | 0.00 | 0.00 | 57 | 1018.4 |
| 20260906171504 | 75 | 68 | 0.9 | 2.6 | 0.00 | 0.00 | 0.00 | 60 | 1016.8 |
| 20260906171003 | 73 | 5 | 0.9 | 2.6 | 0.00 | 0.00 | 0.00 | 60 | 1016.9 |
| 20260906170503 | 77 | 9 | 1.7 | 2.6 | 0.00 | 0.00 | 0.00 | 55 | 1016.9 |
| 20260906170127 | 76 | 0 | 0.9 | 3.5 | 0.00 | 0.00 | 0.00 | 58 | 1018.5 |
| 20260906170006 | 76 | 55 | 0.9 | 2.6 | 0.00 | 0.00 | 0.00 | 60 | 1016.8 |
| 20260906165503 | 73 | 346 | 1.7 | 2.6 | 0.00 | 0.00 | 0.00 | 63 | 1016.9 |
| 20260906165003 | 76 | 32 | 1.7 | 2.6 | 0.00 | 0.00 | 0.00 | 58 | 1016.8 |
| 20260906164601 | 77 | 81 | 0.9 | 5.2 | 0.00 | 0.00 | 0.00 | 57 | 1018.3 |
| 20260906164503 | 77 | 16 | 1.7 | 5.2 | 0.00 | 0.00 | 0.00 | 58 | 1016.7 |
| 20260906164004 | 75 | 30 | 1.7 | 2.6 | 0.00 | 0.00 | 0.00 | 62 | 1016.7 |
| 20260906163101 | 73 | 8 | 0.9 | 4.3 | 0.00 | 0.00 | 0.00 | 63 | 1018.5 |
| 20260906163004 | 74 | 24 | 1.7 | 2.6 | 0.00 | 0.00 | 0.00 | 61 | 1016.8 |
| 20260906162503 | 76 | 72 | 1.7 | 2.6 | 0.00 | 0.00 | 0.00 | 59 | 1016.8 |
| 20260906162003 | 77 | 49 | 1.7 | 4.3 | 0.00 | 0.00 | 0.00 | 57 | 1016.8 |
| 20260906161554 | 75 | 23 | 0.9 | 3.5 | 0.00 | 0.00 | 0.00 | 58 | 1018.3 |
| 20260906161503 | 75 | 32 | 0.9 | 2.6 | 0.00 | 0.00 | 0.00 | 60 | 1016.7 |
| 20260906160503 | 73 | 26 | 1.7 | 2.6 | 0.00 | 0.00 | 0.00 | 66 | 1016.8 |
| 20260906160003 | 74 | 21 | 0.9 | 2.6 | 0.00 | 0.00 | 0.00 | 64 | 1016.7 |
| 20260906155503 | 74 | 49 | 1.7 | 4.3 | 0.00 | 0.00 | 0.00 | 62 | 1016.7 |
| 20260906155003 | 74 | 100 | 1.7 | 2.6 | 0.00 | 0.00 | 0.00 | 66 | 1016.7 |
| 20260906154559 | 72 | 56 | 0.9 | 3.5 | 0.00 | 0.00 | 0.00 | 65 | 1018.4 |
| 20260906154503 | 73 | 353 | 1.7 | 2.6 | 0.00 | 0.00 | 0.00 | 67 | 1016.7 |
| 20260906154003 | 71 | 62 | 0.9 | 2.6 | 0.00 | 0.00 | 0.00 | 67 | 1016.7 |
| 20260906153504 | 72 | 6 | 1.7 | 2.6 | 0.00 | 0.00 | 0.00 | 70 | 1016.6 |
| 20260906153055 | 71 | 89 | 0.9 | 3.5 | 0.00 | 0.00 | 0.00 | 71 | 1018.1 |
| 20260906153004 | 71 | 26 | 1.7 | 2.6 | 0.00 | 0.00 | 0.00 | 72 | 1016.4 |
| 20260906152503 | 72 | 4 | 1.7 | 2.6 | 0.00 | 0.00 | 0.00 | 69 | 1016.4 |
| 20260906152003 | 72 | 63 | 1.7 | 2.6 | 0.00 | 0.00 | 0.00 | 70 | 1016.4 |
| 20260906151608 | 72 | 0 | 0.9 | 2.6 | 0.00 | 0.00 | 0.00 | 69 | 1018.0 |
| 20260906151504 | 72 | 27 | 1.7 | 2.6 | 0.00 | 0.00 | 0.00 | 69 | 1016.5 |
| 20260906151003 | 71 | 67 | 0.9 | 2.6 | 0.00 | 0.00 | 0.00 | 70 | 1016.4 |
| 20260906150503 | 71 | 36 | 0.9 | 2.6 | 0.00 | 0.00 | 0.00 | 69 | 1016.5 |
| 20260906150105 | 71 | 21 | 0.9 | 3.5 | 0.00 | 0.00 | 0.00 | 71 | 1018.1 |
| 20260906150004 | 71 | 9 | 0.9 | 2.6 | 0.00 | 0.00 | 0.00 | 74 | 1016.5 |
| 20260906145503 | 71 | 44 | 0.9 | 2.6 | 0.00 | 0.00 | 0.00 | 72 | 1016.5 |
| 20260906145003 | 71 | 24 | 1.7 | 2.6 | 0.00 | 0.00 | 0.00 | 73 | 1016.6 |
| 20260906144555 | 70 | 0 | 0.9 | 5.2 | 0.00 | 0.00 | 0.00 | 72 | 1018.1 |
| 20260906144504 | 71 | 41 | 0.9 | 2.6 | 0.00 | 0.00 | 0.00 | 73 | 1016.5 |
| 20260906143504 | 70 | 48 | 1.7 | 2.6 | 0.00 | 0.00 | 0.00 | 76 | 1016.5 |
| 20260906143119 | 69 | 89 | 0.9 | 2.6 | 0.00 | 0.00 | 0.00 | 76 | 1018.1 |
| 20260906143004 | 70 | 35 | 0.9 | 2.6 | 0.00 | 0.00 | 0.00 | 77 | 1016.5 |
| 20260906142003 | 69 | 44 | 0.9 | 1.7 | 0.00 | 0.00 | 0.00 | 79 | 1016.4 |
| 20260906141551 | 68 | 1 | 0.9 | 2.6 | 0.00 | 0.00 | 0.00 | 79 | 1018.0 |
| 20260906141503 | 69 | 87 | 0.9 | 1.7 | 0.00 | 0.00 | 0.00 | 80 | 1016.3 |
| 20260906141003 | 68 | 82 | 0.9 | 2.6 | 0.00 | 0.00 | 0.00 | 82 | 1016.3 |
| 20260906140503 | 67 | 322 | 0.9 | 2.6 | 0.00 | 0.00 | 0.00 | 82 | 1016.2 |
| 20260906140055 | 67 | 1 | 0.0 | 2.6 | 0.00 | 0.00 | 0.00 | 81 | 1017.6 |
| 20260906140004 | 67 | 2 | 0.9 | 1.7 | 0.00 | 0.00 | 0.00 | 82 | 1016.1 |
| 20260906135504 | 67 | 28 | 0.9 | 2.6 | 0.00 | 0.00 | 0.00 | 83 | 1016.0 |
| 20260906135004 | 67 | 22 | 0.9 | 2.6 | 0.00 | 0.00 | 0.00 | 87 | 1016.0 |
| 20260906134600 | 66 | 206 | 0.9 | 4.3 | 0.00 | 0.00 | 0.00 | 87 | 1017.5 |
| 20260906134503 | 66 | 10 | 0.9 | 4.3 | 0.00 | 0.00 | 0.00 | 88 | 1016.0 |
| 20260906134004 | 66 | 327 | 0.9 | 4.3 | 0.00 | 0.00 | 0.00 | 92 | 1016.0 |
| 20260906133503 | 65 | 13 | 0.9 | 2.6 | 0.00 | 0.00 | 0.00 | 93 | 1016.0 |
| 20260906133057 | 65 | 15 | 0.9 | 2.6 | 0.00 | 0.00 | 0.00 | 93 | 1017.6 |
| 20260906132504 | 65 | 25 | 0.9 | 2.6 | 0.00 | 0.00 | 0.00 | 95 | 1016.0 |
| 20260906132003 | 65 | 57 | 0.9 | 2.6 | 0.00 | 0.00 | 0.00 | 95 | 1016.0 |
| 20260906131559 | 64 | 338 | 0.9 | 3.5 | 0.00 | 0.00 | 0.00 | 95 | 1017.5 |
| 20260906131503 | 64 | 19 | 0.9 | 2.6 | 0.00 | 0.00 | 0.00 | 96 | 1015.9 |
| 20260906131004 | 64 | 29 | 0.9 | 2.6 | 0.00 | 0.00 | 0.00 | 96 | 1015.9 |
| 20260906130504 | 63 | 12 | 1.7 | 2.6 | 0.00 | 0.00 | 0.00 | 96 | 1015.9 |
| 20260906130055 | 62 | 1 | 0.9 | 2.6 | 0.00 | 0.00 | 0.00 | 95 | 1017.4 |
| 20260906130004 | 63 | 47 | 0.9 | 1.7 | 0.00 | 0.00 | 0.00 | 96 | 1015.8 |
| 20260906125503 | 62 | 127 | 0.0 | 1.7 | 0.00 | 0.00 | 0.00 | 96 | 1015.8 |
| 20260906125004 | 62 | 184 | 0.0 | 1.7 | 0.00 | 0.00 | 0.00 | 96 | 1015.9 |
| 20260906124555 | 61 | 0 | 0.0 | 1.7 | 0.00 | 0.00 | 0.00 | 95 | 1017.4 |
| 20260906124003 | 61 | 226 | 0.0 | 0.9 | 0.00 | 0.00 | 0.00 | 95 | 1015.8 |
| 20260906123503 | 61 | 109 | 0.0 | 0.9 | 0.00 | 0.00 | 0.00 | 95 | 1015.8 |
| 20260906123128 | 60 | 0 | 0.0 | 0.9 | 0.00 | 0.00 | 0.00 | 95 | 1017.3 |
| 20260906123003 | 61 | 74 | 0.0 | 0.9 | 0.00 | 0.00 | 0.00 | 95 | 1015.7 |
| 20260906122503 | 61 | 109 | 0.0 | 0.9 | 0.00 | 0.00 | 0.00 | 95 | 1015.7 |
| 20260906122004 | 61 | 124 | 0.0 | 0.9 | 0.00 | 0.00 | 0.00 | 95 | 1015.7 |
| 20260906121557 | 60 | 0 | 0.0 | 1.7 | 0.00 | 0.00 | 0.00 | 95 | 1017.2 |
| 20260906121504 | 60 | 323 | 0.0 | 1.7 | 0.00 | 0.00 | 0.00 | 95 | 1015.7 |
| 20260906121004 | 60 | 112 | 0.0 | 0.9 | 0.00 | 0.00 | 0.00 | 95 | 1015.7 |
| 20260906120504 | 60 | 71 | 0.9 | 1.7 | 0.00 | 0.00 | 0.00 | 95 | 1015.6 |
| 20260906120055 | 60 | 0 | 0.0 | 0.9 | 0.00 | 0.00 | 0.00 | 94 | 1017.1 |
| 20260906120004 | 60 | 307 | 0.0 | 0.9 | 0.00 | 0.00 | 0.00 | 95 | 1015.5 |
| 20260906115505 | 60 | 140 | 0.0 | 0.9 | 0.00 | 0.00 | 0.00 | 95 | 1015.4 |
| 20260906115004 | 60 | 74 | 0.0 | 0.9 | 0.00 | 0.00 | 0.00 | 95 | 1015.2 |
| 20260906114604 | 59 | 0 | 0.0 | 0.9 | 0.00 | 0.00 | 0.00 | 94 | 1016.7 |
| 20260906114503 | 60 | 175 | 0.0 | 0.9 | 0.00 | 0.00 | 0.00 | 95 | 1015.2 |
| 20260906114004 | 60 | 116 | 0.0 | 0.9 | 0.00 | 0.00 | 0.00 | 95 | 1015.2 |
| 20260906113101 | 59 | 0 | 0.0 | 0.9 | 0.00 | 0.00 | 0.00 | 94 | 1016.7 |
| 20260906113004 | 60 | 131 | 0.0 | 0.9 | 0.00 | 0.00 | 0.00 | 95 | 1015.0 |
| 20260906112004 | 60 | 181 | 0.0 | 1.7 | 0.00 | 0.00 | 0.00 | 95 | 1015.0 |
| 20260906111557 | 60 | 161 | 0.0 | 1.7 | 0.00 | 0.00 | 0.00 | 94 | 1016.5 |
| 20260906111503 | 60 | 180 | 0.9 | 0.9 | 0.00 | 0.00 | 0.00 | 95 | 1015.0 |
| 20260906111003 | 60 | 183 | 0.9 | 0.9 | 0.00 | 0.00 | 0.00 | 95 | 1014.9 |
| 20260906110503 | 60 | 266 | 0.0 | 0.9 | 0.00 | 0.00 | 0.00 | 95 | 1014.8 |
| 20260906110050 | 60 | 46 | 0.0 | 0.9 | 0.00 | 0.00 | 0.00 | 94 | 1016.4 |
| 20260906110004 | 60 | 105 | 0.0 | 0.9 | 0.00 | 0.00 | 0.00 | 95 | 1014.8 |
| 20260906105503 | 60 | 72 | 0.0 | 0.9 | 0.00 | 0.00 | 0.00 | 95 | 1014.8 |
| 20260906105003 | 60 | 186 | 0.0 | 0.9 | 0.00 | 0.00 | 0.00 | 95 | 1014.8 |
| 20260906104550 | 59 | 0 | 0.0 | 1.7 | 0.00 | 0.00 | 0.00 | 94 | 1016.4 |
| 20260906104503 | 60 | 181 | 0.0 | 0.9 | 0.00 | 0.00 | 0.00 | 95 | 1014.7 |
| 20260906104004 | 60 | 184 | 0.0 | 0.9 | 0.00 | 0.00 | 0.00 | 94 | 1014.6 |
| 20260906103504 | 60 | 91 | 0.0 | 0.9 | 0.00 | 0.00 | 0.00 | 94 | 1014.6 |
| 20260906103056 | 59 | 178 | 0.0 | 0.9 | 0.00 | 0.00 | 0.00 | 94 | 1016.2 |
| 20260906103004 | 60 | 201 | 0.0 | 0.9 | 0.00 | 0.00 | 0.00 | 94 | 1014.5 |
| 20260906102504 | 60 | 116 | 0.0 | 0.9 | 0.00 | 0.00 | 0.00 | 94 | 1014.5 |
| 20260906101551 | 60 | 0 | 0.0 | 1.7 | 0.00 | 0.00 | 0.00 | 94 | 1016.1 |
| 20260906101503 | 60 | 222 | 0.0 | 0.9 | 0.00 | 0.00 | 0.00 | 94 | 1014.4 |
| 20260906101003 | 60 | 177 | 0.9 | 1.7 | 0.00 | 0.00 | 0.00 | 94 | 1014.4 |
| 20260906100503 | 60 | 196 | 0.9 | 0.9 | 0.00 | 0.00 | 0.00 | 94 | 1014.3 |
| 20260906100053 | 60 | 0 | 0.0 | 1.7 | 0.00 | 0.00 | 0.00 | 94 | 1015.9 |
| 20260906100004 | 60 | 250 | 0.0 | 0.9 | 0.00 | 0.00 | 0.00 | 94 | 1014.2 |
| 20260906095504 | 60 | 184 | 0.9 | 0.9 | 0.00 | 0.00 | 0.00 | 94 | 1014.2 |
| 20260906095003 | 61 | 199 | 0.9 | 1.7 | 0.00 | 0.00 | 0.00 | 94 | 1014.1 |
| 20260906094607 | 60 | 0 | 0.0 | 1.7 | 0.00 | 0.00 | 0.00 | 94 | 1015.8 |
| 20260906094504 | 61 | 196 | 0.9 | 1.7 | 0.00 | 0.00 | 0.00 | 94 | 1014.1 |
| 20260906094004 | 61 | 223 | 0.9 | 0.9 | 0.00 | 0.00 | 0.00 | 94 | 1014.0 |
| 20260906093054 | 60 | 145 | 0.0 | 0.9 | 0.00 | 0.00 | 0.00 | 94 | 1015.8 |
| 20260906093004 | 61 | 141 | 0.0 | 0.9 | 0.00 | 0.00 | 0.00 | 94 | 1014.0 |
| 20260906092003 | 61 | 190 | 0.9 | 0.9 | 0.00 | 0.00 | 0.00 | 94 | 1013.9 |
| 20260906091603 | 61 | 135 | 0.0 | 1.7 | 0.00 | 0.00 | 0.00 | 93 | 1015.7 |
| 20260906091503 | 61 | 163 | 0.9 | 0.9 | 0.00 | 0.00 | 0.00 | 94 | 1013.8 |
| 20260906091004 | 61 | 189 | 0.0 | 1.7 | 0.00 | 0.00 | 0.00 | 94 | 1013.8 |
| 20260906090504 | 61 | 227 | 0.9 | 1.7 | 0.00 | 0.00 | 0.00 | 94 | 1013.7 |
| 20260906090054 | 61 | 0 | 0.0 | 1.7 | 0.00 | 0.00 | 0.00 | 93 | 1015.3 |
| 20260906090004 | 61 | 203 | 0.9 | 1.7 | 0.00 | 0.00 | 0.00 | 94 | 1013.6 |
| 20260906085503 | 62 | 171 | 0.0 | 0.9 | 0.00 | 0.00 | 0.00 | 94 | 1013.4 |
| 20260906085003 | 62 | 91 | 0.0 | 0.9 | 0.00 | 0.00 | 0.00 | 94 | 1013.4 |
| 20260906084559 | 61 | 0 | 0.0 | 0.9 | 0.00 | 0.00 | 0.00 | 93 | 1015.0 |
| 20260906084503 | 62 | 157 | 0.0 | 0.9 | 0.00 | 0.00 | 0.00 | 94 | 1013.3 |
| 20260906084004 | 62 | 131 | 0.0 | 0.9 | 0.00 | 0.00 | 0.00 | 94 | 1013.3 |
| 20260906083504 | 62 | 231 | 0.0 | 0.9 | 0.00 | 0.00 | 0.00 | 94 | 1013.3 |
| 20260906083054 | 62 | 0 | 0.0 | 0.9 | 0.00 | 0.00 | 0.00 | 93 | 1015.0 |
| 20260906083004 | 62 | 73 | 0.0 | 0.9 | 0.00 | 0.00 | 0.00 | 94 | 1013.2 |
| 20260906082503 | 62 | 73 | 0.0 | 0.0 | 0.00 | 0.00 | 0.00 | 94 | 1013.2 |
| 20260906082003 | 62 | 3 | 0.0 | 0.9 | 0.00 | 0.00 | 0.00 | 94 | 1013.2 |
| 20260906081551 | 62 | 0 | 0.0 | 1.7 | 0.00 | 0.00 | 0.00 | 93 | 1015.0 |
| 20260906081503 | 62 | 142 | 0.0 | 0.9 | 0.00 | 0.00 | 0.00 | 94 | 1013.2 |
| 20260906081004 | 62 | 181 | 0.0 | 1.7 | 0.00 | 0.00 | 0.00 | 94 | 1013.2 |
| 20260906080504 | 62 | 206 | 0.0 | 1.7 | 0.00 | 0.00 | 0.00 | 93 | 1013.2 |
| 20260906080053 | 62 | 0 | 0.0 | 0.9 | 0.00 | 0.00 | 0.00 | 93 | 1015.0 |
| 20260906075503 | 63 | 91 | 0.0 | 0.9 | 0.00 | 0.00 | 0.00 | 93 | 1013.3 |
| 20260906075003 | 63 | 83 | 0.0 | 0.9 | 0.00 | 0.00 | 0.00 | 93 | 1013.2 |
| 20260906074606 | 62 | 0 | 0.0 | 0.9 | 0.00 | 0.00 | 0.00 | 93 | 1015.0 |
| 20260906074503 | 63 | 325 | 0.0 | 0.9 | 0.00 | 0.00 | 0.00 | 93 | 1013.1 |
| 20260906074004 | 63 | 110 | 0.0 | 0.9 | 0.00 | 0.00 | 0.00 | 93 | 1013.0 |
| 20260906073221 | 63 | 0 | 0.0 | 0.9 | 0.00 | 0.00 | 0.00 | 93 | 1014.7 |
| 20260906072503 | 63 | 230 | 0.0 | 0.9 | 0.00 | 0.00 | 0.00 | 94 | 1013.0 |
| 20260906072003 | 63 | 219 | 0.0 | 0.9 | 0.00 | 0.00 | 0.00 | 94 | 1013.0 |
| 20260906071556 | 63 | 0 | 0.0 | 0.9 | 0.00 | 0.00 | 0.00 | 93 | 1014.8 |
| 20260906071503 | 63 | 95 | 0.0 | 0.0 | 0.00 | 0.00 | 0.00 | 94 | 1013.0 |
| 20260906070503 | 63 | 168 | 0.0 | 0.9 | 0.00 | 0.00 | 0.00 | 94 | 1013.1 |
| 20260906070004 | 63 | 190 | 0.9 | 1.7 | 0.00 | 0.00 | 0.00 | 93 | 1013.1 |
| 20260906064602 | 63 | 223 | 0.0 | 0.9 | 0.00 | 0.00 | 0.00 | 93 | 1015.0 |
| 20260906064504 | 64 | 23 | 0.0 | 0.9 | 0.00 | 0.00 | 0.00 | 93 | 1013.1 |
| 20260906064003 | 64 | 247 | 0.9 | 0.9 | 0.00 | 0.00 | 0.00 | 93 | 1013.1 |
| 20260906063058 | 63 | 0 | 0.0 | 0.9 | 0.00 | 0.00 | 0.00 | 93 | 1015.0 |
| 20260906062504 | 64 | 183 | 0.0 | 0.9 | 0.00 | 0.00 | 0.00 | 93 | 1013.2 |
| 20260906062004 | 64 | 176 | 0.9 | 1.7 | 0.00 | 0.00 | 0.00 | 93 | 1013.2 |
| 20260906061554 | 63 | 178 | 0.0 | 0.9 | 0.00 | 0.00 | 0.00 | 93 | 1015.0 |
| 20260906061504 | 64 | 190 | 0.9 | 0.9 | 0.00 | 0.00 | 0.00 | 93 | 1013.2 |
| 20260906060503 | 64 | 177 | 0.0 | 0.9 | 0.00 | 0.00 | 0.00 | 93 | 1013.3 |
| 20260906060100 | 64 | 0 | 0.0 | 1.7 | 0.00 | 0.00 | 0.00 | 93 | 1014.9 |
| 20260906060003 | 64 | 52 | 0.0 | 0.9 | 0.00 | 0.00 | 0.00 | 93 | 1013.2 |
| 20260906055503 | 64 | 186 | 0.0 | 1.7 | 0.00 | 0.00 | 0.00 | 93 | 1013.1 |
| 20260906055004 | 64 | 162 | 0.0 | 0.9 | 0.00 | 0.00 | 0.00 | 93 | 1013.2 |
| 20260906054556 | 64 | 269 | 0.0 | 1.7 | 0.00 | 0.00 | 0.00 | 93 | 1014.9 |
| 20260906054504 | 64 | 218 | 0.9 | 0.9 | 0.00 | 0.00 | 0.00 | 93 | 1013.2 |
| 20260906054004 | 64 | 165 | 0.9 | 1.7 | 0.00 | 0.00 | 0.00 | 93 | 1013.3 |
| 20260906053503 | 64 | 177 | 0.9 | 1.7 | 0.00 | 0.00 | 0.00 | 93 | 1013.2 |
| 20260906053108 | 64 | 0 | 0.0 | 0.9 | 0.00 | 0.00 | 0.00 | 93 | 1015.0 |
| 20260906053004 | 64 | 231 | 0.0 | 0.9 | 0.00 | 0.00 | 0.00 | 93 | 1013.3 |
| 20260906052504 | 64 | 175 | 0.0 | 0.9 | 0.00 | 0.00 | 0.00 | 93 | 1013.3 |
| 20260906051601 | 63 | 0 | 0.0 | 1.7 | 0.00 | 0.00 | 0.00 | 93 | 1015.1 |
| 20260906051504 | 64 | 201 | 0.0 | 0.9 | 0.00 | 0.00 | 0.00 | 93 | 1013.3 |
| 20260906051004 | 64 | 149 | 0.9 | 1.7 | 0.00 | 0.00 | 0.00 | 93 | 1013.3 |
| 20260906050503 | 64 | 139 | 0.0 | 0.9 | 0.00 | 0.00 | 0.00 | 93 | 1013.3 |
| 20260906050108 | 63 | 124 | 0.0 | 1.7 | 0.00 | 0.00 | 0.00 | 92 | 1015.0 |
| 20260906050004 | 64 | 193 | 0.9 | 1.7 | 0.00 | 0.00 | 0.00 | 93 | 1013.3 |
| 20260906045504 | 64 | 206 | 0.0 | 0.9 | 0.00 | 0.00 | 0.00 | 93 | 1013.2 |
| 20260906045004 | 64 | 243 | 0.9 | 1.7 | 0.00 | 0.00 | 0.00 | 93 | 1013.2 |
| 20260906044600 | 63 | 253 | 0.0 | 1.7 | 0.00 | 0.00 | 0.00 | 92 | 1014.8 |
| 20260906044003 | 64 | 183 | 0.9 | 1.7 | 0.00 | 0.00 | 0.00 | 93 | 1013.2 |
| 20260906043503 | 64 | 126 | 0.9 | 1.7 | 0.00 | 0.00 | 0.00 | 92 | 1013.1 |
| 20260906043101 | 64 | 0 | 0.0 | 2.6 | 0.00 | 0.00 | 0.00 | 92 | 1014.7 |
| 20260906042504 | 64 | 255 | 0.0 | 1.7 | 0.00 | 0.00 | 0.00 | 92 | 1013.0 |
| 20260906042003 | 64 | 33 | 0.0 | 0.9 | 0.00 | 0.00 | 0.00 | 92 | 1013.1 |
| 20260906041603 | 64 | 0 | 0.0 | 0.9 | 0.00 | 0.00 | 0.00 | 91 | 1014.8 |
| 20260906041503 | 64 | 165 | 0.9 | 0.9 | 0.00 | 0.00 | 0.00 | 92 | 1013.1 |
| 20260906041004 | 64 | 150 | 0.0 | 0.9 | 0.00 | 0.00 | 0.00 | 92 | 1013.1 |
| 20260906040503 | 64 | 106 | 0.0 | 0.9 | 0.00 | 0.00 | 0.00 | 91 | 1012.9 |
| 20260906040056 | 64 | 135 | 0.0 | 1.7 | 0.00 | 0.00 | 0.00 | 91 | 1014.6 |
| 20260906035503 | 65 | 182 | 0.9 | 1.7 | 0.00 | 0.00 | 0.00 | 91 | 1012.9 |
| 20260906035004 | 65 | 172 | 0.9 | 1.7 | 0.00 | 0.00 | 0.00 | 91 | 1012.9 |
| 20260906034605 | 64 | 190 | 0.0 | 0.9 | 0.00 | 0.00 | 0.00 | 91 | 1014.6 |
| 20260906034504 | 65 | 223 | 0.0 | 0.9 | 0.00 | 0.00 | 0.00 | 91 | 1012.8 |
| 20260906034003 | 65 | 227 | 0.9 | 0.9 | 0.00 | 0.00 | 0.00 | 91 | 1012.8 |
| 20260906033503 | 65 | 97 | 0.0 | 0.9 | 0.00 | 0.00 | 0.00 | 91 | 1012.9 |
| 20260906033109 | 65 | 0 | 0.0 | 0.9 | 0.00 | 0.00 | 0.00 | 90 | 1014.5 |
| 20260906033004 | 65 | 118 | 0.0 | 0.9 | 0.00 | 0.00 | 0.00 | 91 | 1012.8 |
| 20260906032504 | 65 | 87 | 0.0 | 0.9 | 0.00 | 0.00 | 0.00 | 91 | 1012.9 |
| 20260906032004 | 65 | 127 | 0.0 | 0.9 | 0.00 | 0.00 | 0.00 | 91 | 1012.9 |
| 20260906031554 | 65 | 0 | 0.0 | 0.9 | 0.00 | 0.00 | 0.00 | 90 | 1014.6 |
| 20260906031503 | 65 | 109 | 0.9 | 0.9 | 0.00 | 0.00 | 0.00 | 90 | 1012.9 |
| 20260906030503 | 65 | 194 | 0.0 | 0.9 | 0.00 | 0.00 | 0.00 | 90 | 1012.8 |
| 20260906030004 | 65 | 169 | 0.0 | 0.9 | 0.00 | 0.00 | 0.00 | 90 | 1012.7 |
| 20260906025504 | 65 | 48 | 0.0 | 0.9 | 0.00 | 0.00 | 0.00 | 90 | 1012.6 |
| 20260906025004 | 65 | 26 | 0.0 | 0.9 | 0.00 | 0.00 | 0.00 | 90 | 1012.7 |
| 20260906024558 | 65 | 0 | 0.0 | 0.9 | 0.00 | 0.00 | 0.00 | 89 | 1014.4 |
| 20260906024503 | 65 | 93 | 0.9 | 0.9 | 0.00 | 0.00 | 0.00 | 90 | 1012.7 |
| 20260906024003 | 66 | 180 | 0.9 | 0.9 | 0.00 | 0.00 | 0.00 | 90 | 1012.6 |
| 20260906023504 | 66 | 118 | 0.0 | 0.9 | 0.00 | 0.00 | 0.00 | 89 | 1012.6 |
| 20260906023103 | 65 | 0 | 0.0 | 0.9 | 0.00 | 0.00 | 0.00 | 89 | 1014.2 |
| 20260906023004 | 66 | 86 | 0.9 | 0.9 | 0.00 | 0.00 | 0.00 | 89 | 1012.5 |
| 20260906022504 | 66 | 38 | 0.9 | 0.9 | 0.00 | 0.00 | 0.00 | 89 | 1012.6 |
| 20260906022004 | 66 | 274 | 0.0 | 0.9 | 0.00 | 0.00 | 0.00 | 89 | 1012.5 |
| 20260906021606 | 65 | 0 | 0.0 | 0.9 | 0.00 | 0.00 | 0.00 | 88 | 1014.2 |
| 20260906021503 | 66 | 219 | 0.9 | 0.9 | 0.00 | 0.00 | 0.00 | 89 | 1012.6 |
| 20260906021003 | 66 | 51 | 0.0 | 0.9 | 0.00 | 0.00 | 0.00 | 88 | 1012.5 |
| 20260906020503 | 66 | 35 | 0.0 | 0.9 | 0.00 | 0.00 | 0.00 | 88 | 1012.5 |
| 20260906020107 | 66 | 0 | 0.0 | 0.9 | 0.00 | 0.00 | 0.00 | 87 | 1014.2 |
| 20260906020004 | 66 | 74 | 0.0 | 0.9 | 0.00 | 0.00 | 0.00 | 88 | 1012.6 |
| 20260906015503 | 66 | 334 | 0.0 | 0.9 | 0.00 | 0.00 | 0.00 | 87 | 1012.6 |
| 20260906015004 | 66 | 128 | 0.0 | 0.9 | 0.00 | 0.00 | 0.00 | 87 | 1012.5 |
| 20260906014555 | 66 | 0 | 0.0 | 0.9 | 0.00 | 0.00 | 0.00 | 86 | 1014.2 |
| 20260906014503 | 67 | 152 | 0.0 | 0.9 | 0.00 | 0.00 | 0.00 | 87 | 1012.5 |
| 20260906014004 | 67 | 137 | 0.0 | 0.9 | 0.00 | 0.00 | 0.00 | 86 | 1012.4 |
| 20260906013110 | 67 | 0 | 0.0 | 0.9 | 0.00 | 0.00 | 0.00 | 85 | 1014.1 |
| 20260906013004 | 67 | 55 | 0.0 | 0.9 | 0.00 | 0.00 | 0.00 | 86 | 1012.3 |
| 20260906012503 | 67 | 43 | 0.0 | 0.0 | 0.00 | 0.00 | 0.00 | 85 | 1012.3 |
| 20260906012004 | 68 | 16 | 0.0 | 0.0 | 0.00 | 0.00 | 0.00 | 85 | 1012.3 |
| 20260906011604 | 67 | 0 | 0.0 | 0.9 | 0.00 | 0.00 | 0.00 | 84 | 1014.1 |
| 20260906011504 | 68 | 111 | 0.0 | 0.9 | 0.00 | 0.00 | 0.00 | 85 | 1012.3 |
| 20260906011003 | 68 | 47 | 0.0 | 0.9 | 0.00 | 0.00 | 0.00 | 85 | 1012.3 |
| 20260906010503 | 68 | 95 | 0.0 | 0.9 | 0.00 | 0.00 | 0.00 | 84 | 1012.2 |
| 20260906010100 | 68 | 0 | 0.0 | 0.9 | 0.00 | 0.00 | 0.00 | 83 | 1014.1 |
| 20260906010004 | 68 | 78 | 0.0 | 0.9 | 0.00 | 0.00 | 0.00 | 84 | 1012.3 |
| 20260906005504 | 68 | 30 | 0.0 | 0.0 | 0.00 | 0.00 | 0.00 | 83 | 1012.3 |
| 20260906004604 | 68 | 0 | 0.0 | 0.9 | 0.00 | 0.00 | 0.00 | 82 | 1014.0 |
| 20260906004503 | 68 | 254 | 0.0 | 0.9 | 0.00 | 0.00 | 0.00 | 82 | 1012.3 |
| 20260906004003 | 69 | 150 | 0.0 | 0.9 | 0.00 | 0.00 | 0.00 | 82 | 1012.2 |
| 20260906003504 | 69 | 91 | 0.0 | 0.9 | 0.00 | 0.00 | 0.00 | 82 | 1012.1 |
| 20260906003103 | 68 | 0 | 0.0 | 0.9 | 0.00 | 0.00 | 0.00 | 81 | 1013.8 |
| 20260906003004 | 69 | 75 | 0.0 | 0.0 | 0.00 | 0.00 | 0.00 | 81 | 1012.2 |
| 20260906002003 | 69 | 125 | 0.0 | 0.9 | 0.00 | 0.00 | 0.00 | 80 | 1012.1 |
| 20260906001555 | 69 | 0 | 0.0 | 0.9 | 0.00 | 0.00 | 0.00 | 80 | 1013.8 |
| 20260906001503 | 70 | 81 | 0.0 | 0.9 | 0.00 | 0.00 | 0.00 | 80 | 1012.2 |
| 20260906000504 | 70 | 94 | 0.0 | 0.9 | 0.00 | 0.00 | 0.00 | 81 | 1012.3 |
| 20260906000100 | 69 | 0 | 0.0 | 0.9 | 0.00 | 0.00 | 0.00 | 79 | 1013.9 |
| 20260906000004 | 70 | 334 | 0.0 | 0.9 | 0.00 | 0.00 | 0.00 | 80 | 1012.3 |
| 20260905235504 | 70 | 200 | 0.0 | 0.9 | 0.00 | 0.00 | 0.00 | 79 | 1012.3 |
| 20260905235004 | 70 | 66 | 0.0 | 0.9 | 0.00 | 0.00 | 0.00 | 79 | 1012.2 |
| 20260905234554 | 70 | 340 | 0.0 | 0.9 | 0.00 | 0.00 | 0.00 | 78 | 1013.8 |
| 20260905234504 | 70 | 114 | 0.0 | 0.9 | 0.00 | 0.00 | 0.00 | 79 | 1012.2 |
| 20260905234004 | 70 | 141 | 0.0 | 0.9 | 0.00 | 0.00 | 0.00 | 79 | 1012.2 |
| 20260905233503 | 70 | 30 | 0.0 | 0.9 | 0.00 | 0.00 | 0.00 | 79 | 1012.2 |
| 20260905233103 | 70 | 303 | 0.0 | 0.9 | 0.00 | 0.00 | 0.00 | 78 | 1013.9 |
| 20260905233004 | 70 | 341 | 0.0 | 0.9 | 0.00 | 0.00 | 0.00 | 78 | 1012.2 |
| 20260905232503 | 71 | 69 | 0.0 | 0.9 | 0.00 | 0.00 | 0.00 | 78 | 1012.3 |
| 20260905232004 | 71 | 324 | 0.0 | 0.9 | 0.00 | 0.00 | 0.00 | 77 | 1012.3 |
| 20260905231603 | 70 | 117 | 0.0 | 1.7 | 0.00 | 0.00 | 0.00 | 77 | 1013.9 |
| 20260905231503 | 71 | 54 | 0.0 | 0.9 | 0.00 | 0.00 | 0.00 | 77 | 1012.3 |
| 20260905231004 | 71 | 41 | 0.0 | 1.7 | 0.00 | 0.00 | 0.00 | 77 | 1012.2 |
| 20260905230504 | 71 | 18 | 0.0 | 0.9 | 0.00 | 0.00 | 0.00 | 77 | 1012.2 |
| 20260905230100 | 71 | 0 | 0.0 | 1.7 | 0.00 | 0.00 | 0.00 | 76 | 1013.9 |
| 20260905230004 | 71 | 72 | 0.0 | 1.7 | 0.00 | 0.00 | 0.00 | 77 | 1012.3 |
| 20260905225504 | 71 | 65 | 0.0 | 1.7 | 0.00 | 0.00 | 0.00 | 76 | 1012.3 |
| 20260905225003 | 71 | 38 | 0.9 | 1.7 | 0.00 | 0.00 | 0.00 | 76 | 1012.3 |
| 20260905224604 | 71 | 303 | 0.0 | 1.7 | 0.00 | 0.00 | 0.00 | 75 | 1014.0 |
| 20260905224504 | 72 | 2 | 0.9 | 1.7 | 0.00 | 0.00 | 0.00 | 76 | 1012.4 |
| 20260905224004 | 72 | 73 | 0.9 | 1.7 | 0.00 | 0.00 | 0.00 | 75 | 1012.3 |
| 20260905223504 | 72 | 338 | 0.0 | 0.9 | 0.00 | 0.00 | 0.00 | 74 | 1012.3 |
| 20260905223103 | 72 | 0 | 0.0 | 1.7 | 0.00 | 0.00 | 0.00 | 73 | 1013.8 |
| 20260905223004 | 73 | 354 | 0.0 | 1.7 | 0.00 | 0.00 | 0.00 | 73 | 1012.2 |
| 20260905222503 | 73 | 86 | 0.0 | 1.7 | 0.00 | 0.00 | 0.00 | 73 | 1012.2 |
| 20260905222003 | 73 | 352 | 0.0 | 1.7 | 0.00 | 0.00 | 0.00 | 73 | 1012.1 |
| 20260905221604 | 73 | 331 | 0.9 | 2.6 | 0.00 | 0.00 | 0.00 | 71 | 1013.8 |
| 20260905221503 | 73 | 346 | 0.9 | 2.6 | 0.00 | 0.00 | 0.00 | 71 | 1012.1 |
| 20260905221003 | 74 | 348 | 0.9 | 1.7 | 0.00 | 0.00 | 0.00 | 71 | 1012.0 |
| 20260905220504 | 74 | 48 | 1.7 | 2.6 | 0.00 | 0.00 | 0.00 | 72 | 1011.9 |
| 20260905220059 | 74 | 314 | 0.9 | 2.6 | 0.00 | 0.00 | 0.00 | 70 | 1013.6 |
| 20260905220004 | 74 | 11 | 0.9 | 2.6 | 0.00 | 0.00 | 0.00 | 70 | 1012.0 |
| 20260905215503 | 75 | 337 | 0.9 | 1.7 | 0.00 | 0.00 | 0.00 | 68 | 1011.9 |
| 20260905215004 | 76 | 36 | 0.9 | 2.6 | 0.00 | 0.00 | 0.00 | 66 | 1011.7 |
| 20260905214600 | 76 | 46 | 0.0 | 1.7 | 0.00 | 0.00 | 0.00 | 64 | 1013.5 |
| 20260905214503 | 77 | 0 | 0.9 | 1.7 | 0.00 | 0.00 | 0.00 | 65 | 1011.8 |